Location: Albany
(35.0170°S, 117.8920°E)
Time: 17:41:17
(UTC+08:00)

Transit 4A - Visible Passes

Search period start: 24 January 2021 00:00
Search period end: 03 February 2021 00:00
Orbit: 864 x 980 km, 66.8° (Epoch: 23 January)

Date Brightness Start Highest point End Pass type
(mag) Time Alt. Az. Time Alt. Az. Time Alt. Az.
27 Jan 10.9 04:35:35 10° ENE 04:35:52 10° E 04:36:08 10° E visible
28 Jan 10.3 04:41:10 10° NE 04:44:52 18° ENE 04:48:35 10° ESE visible
29 Jan 9.7 04:49:05 10° NNE 04:53:57 28° ENE 04:58:49 10° SE visible
01 Feb 10.3 03:33:41 10° NE 03:36:00 12° ENE 03:38:20 10° ESE visible
02 Feb 9.9 03:40:50 10° NNE 03:45:02 21° ENE 03:49:14 10° ESE visible
